Flag for Germany Weather past 2 weeks in Cuxhaven, Lower Saxony, Germany

Now
41 °F

Quite cool.


Feels Like: 32 °F
Forecast: 31 / 39 °F
Wind: 18 mph from Southwest

Location: Nordholz

Current Time: Dec 25, 2014 at 1:08:08 AM

Latest Report: Dec 25, 2014 at 12:20 AM


Visibility: N/A

Pressure: 29.86 "Hg

Humidity: 87%

Dew point: 37 °F

Location of CuxhavenLocation

Historic Weather in Cuxhaven — Graph

°F

Cuxhaven temperature yesterday

Maximum temperature yesterday: 48 °F (at 12:20 AM)
Minimum temperature yesterday: 39 °F (at 11:20 PM)
Average temperature yesterday: 46 °F

Past Weeks' High & Low Weather Summary

 TemperatureHumidityPressure
High52 °F (Dec 18, 6:20 PM)100% (Dec 12, 7:20 AM)30.18 "Hg (Dec 12, 7:20 AM)
Low32 °F (Dec 14, 2:20 AM)75% (Dec 13, 1:20 AM)29.12 "Hg (Dec 12, 12:20 PM)
Average43 °F89%29.72 "Hg
* Reported Dec 9 11:20 PM — Dec 24 11:20 PM, Cuxhaven, Weather by CustomWeather, © 2014

Note: Actual official high and low records may vary slightly from our data, if they occured in-between our weather recording intervals... More about our weather records

Advertising

Cuxhaven weather history for previous 24 hours

 ConditionsComfort  
Time TempWeatherWind HumidityBarometerVisibility
11:20 PM
Dec 24
39 °FChilly.17 mph87%29.86 "HgN/A
10:20 PM41 °FQuite cool.15 mph81%29.86 "HgN/A
9:20 PM41 °FQuite cool.14 mph87%29.86 "HgN/A
8:20 PM43 °FQuite cool.23 mph76%29.86 "HgN/A
7:20 PM43 °FQuite cool.18 mph81%29.83 "HgN/A
6:20 PM43 °FQuite cool.14 mph81%29.83 "HgN/A
5:20 PM45 °FScattered showers. Passing clouds.14 mph76%29.80 "HgN/A
4:20 PM45 °FPassing clouds.16 mph81%29.80 "HgN/A
3:20 PM46 °FScattered showers. Passing clouds.21 mph76%29.77 "HgN/A
2:20 PM46 °FScattered showers. Scattered clouds.20 mph76%29.77 "HgN/A
1:20 PM46 °FScattered showers. Scattered clouds.21 mph82%29.74 "HgN/A
12:20 PM46 °FScattered clouds.22 mph87%29.74 "HgN/A
11:20 AM46 °FBroken clouds.21 mph87%29.74 "HgN/A
10:20 AM48 °FBroken clouds.24 mph94%29.68 "HgN/A
10:01 AM48 °FLight rain. More clouds than sun.23 mph94%29.68 "HgN/A
9:20 AM48 °FDrizzle. Fog.21 mph94%29.68 "Hg2 mi
8:20 AM46 °FDrizzle. Fog.21 mph100%29.65 "Hg2 mi
7:20 AM46 °FDrizzle. Fog.22 mph100%29.65 "Hg2 mi
6:46 AM46 °FDrizzle. Fog.24 mph100%29.68 "Hg2 mi
6:20 AM46 °FDrizzle. Fog.22 mph100%29.68 "Hg2 mi
5:20 AM46 °FDrizzle. Fog.23 mph100%29.68 "Hg2 mi
4:20 AM46 °FDrizzle. Fog.23 mph93%29.71 "Hg2 mi
3:20 AM46 °FLight rain. Fog.22 mph100%29.74 "Hg2 mi
2:20 AM48 °FDrizzle. Fog.22 mph94%29.77 "Hg2 mi
1:50 AM48 °FDrizzle. Fog.22 mph94%29.77 "Hg2 mi
1:20 AM48 °FDrizzle. Fog.20 mph94%29.77 "Hg2 mi
Weather by CustomWeather, © 2014

See weather overviewHow to use our weather pages